GW3805 Weather Reports


time (UTC)temp
C
wind
direction
speed
KPH
gust
KPH
rain 1hr
cm
rain 24hr
cm
rain mn
cm
humidity
%
barometer
mb
20260507093120 7 183 3.2 3.2 0.00 0.00 0.00 74 1012.9
20260507092620 7 182 3.2 3.2 0.00 0.00 0.00 74 1012.9
20260507091621 8 187 3.2 3.2 0.00 0.00 0.00 72 1012.9
20260507091120 8 208 3.2 3.2 0.00 0.00 0.00 72 1013.2
20260507090621 8 123 3.2 3.2 0.00 0.00 0.00 72 1013.2
20260507085620 8 199 3.2 3.2 0.00 0.00 0.00 71 1013.2
20260507084620 8 211 3.2 3.2 0.00 0.00 0.00 70 1013.5
20260507083621 8 185 3.2 3.2 0.00 0.00 0.00 70 1013.5
20260507083121 8 194 1.6 1.6 0.00 0.00 0.00 69 1013.5
20260507082121 8 191 1.6 1.6 0.00 0.00 0.00 68 1013.5
20260507081621 8 192 1.6 1.6 0.00 0.00 0.00 68 1013.5
20260507081120 8 249 1.6 1.6 0.00 0.00 0.00 67 1013.5
20260507080120 7 238 1.6 1.6 0.00 0.00 0.00 66 1013.9
20260507075621 7 258 1.6 1.6 0.00 0.00 0.00 67 1013.9
20260507075120 7 166 1.6 1.6 0.00 0.00 0.00 65 1013.9
20260507074120 7 200 1.6 1.6 0.00 0.00 0.00 64 1013.9
20260507073121 7 182 1.6 1.6 0.00 0.00 0.00 63 1014.2
20260507072120 7 236 1.6 1.6 0.00 0.00 0.00 62 1014.2
20260507071120 7 214 0.0 0.0 0.00 0.00 0.00 61 1014.2
20260507070621 7 250 0.0 0.0 0.00 0.00 0.00 61 1014.6
20260507070120 7 178 0.0 0.0 0.00 0.00 0.00 60 1014.6
20260507065120 6 231 0.0 0.0 0.00 0.00 0.00 63 1014.6
20260507064620 5 357 0.0 0.0 0.00 0.00 0.00 63 1014.6
20260507063621 5 276 0.0 0.0 0.00 0.00 0.00 63 1014.6
20260507063120 5 253 0.0 0.0 0.00 0.00 0.00 62 1014.9
20260507062120 5 225 0.0 0.0 0.00 0.00 0.00 60 1014.9
20260507060620 5 260 0.0 0.0 0.00 0.00 0.00 60 1014.9
20260507055620 5 240 0.0 0.0 0.00 0.00 0.00 61 1014.9
20260507055120 5 279 0.0 0.0 0.00 0.00 0.00 63 1014.9
20260507054120 6 318 0.0 0.0 0.00 0.00 0.00 63 1015.2
20260507053120 6 281 0.0 0.0 0.00 0.00 0.00 63 1014.9
20260507052620 6 258 0.0 0.0 0.00 0.00 0.00 62 1014.9
20260507052120 6 280 0.0 0.0 0.00 0.00 0.00 62 1014.9
20260507051120 6 250 0.0 0.0 0.00 0.00 0.00 61 1015.2
20260507050620 5 241 0.0 0.0 0.00 0.00 0.00 63 1015.2
20260507045621 5 229 0.0 0.0 0.00 0.00 0.00 65 1015.2
20260507043621 5 268 0.0 0.0 0.00 0.00 0.00 66 1015.2
20260507043121 5 249 0.0 0.0 0.00 0.00 0.00 68 1015.2
20260507042121 5 248 0.0 0.0 0.00 0.00 0.00 70 1015.2
20260507040120 6 256 0.0 0.0 0.00 0.00 0.00 61 1015.6
20260507035121 6 171 0.0 0.0 0.00 0.00 0.00 58 1015.6
20260507034620 6 244 0.0 0.0 0.00 0.00 0.00 57 1015.6
20260507034121 6 242 0.0 0.0 0.00 0.00 0.00 57 1015.6
20260507033120 7 252 0.0 0.0 0.00 0.00 0.00 55 1015.6
20260507032620 7 252 0.0 0.0 0.00 0.00 0.00 55 1015.6
20260507031621 7 300 0.0 0.0 0.00 0.00 0.00 51 1015.6
20260507030621 7 271 0.0 0.0 0.00 0.00 0.00 54 1015.6
20260507030120 7 336 0.0 0.0 0.00 0.00 0.00 55 1015.6
20260507024121 8 292 0.0 0.0 0.00 0.00 0.00 49 1015.6
20260507023620 8 278 0.0 0.0 0.00 0.00 0.00 49 1015.2
20260507022120 10 339 0.0 0.0 0.00 0.00 0.00 47 1015.2
20260507021621 10 314 0.0 0.0 0.00 0.00 0.00 43 1015.2
20260507020621 10 296 0.0 0.0 0.00 0.00 0.00 41 1015.2
20260507020120 10 323 0.0 0.0 0.00 0.00 0.00 41 1015.2
20260507015620 11 317 0.0 0.0 0.00 0.00 0.00 39 1015.2
20260507015121 11 317 0.0 0.0 0.00 0.00 0.00 39 1015.2
20260507014121 11 326 0.0 0.0 0.00 0.00 0.00 39 1015.2
20260507013121 12 282 0.0 0.0 0.00 0.00 0.00 38 1015.2
20260507012621 12 316 0.0 0.0 0.00 0.00 0.00 37 1015.2
20260507012120 12 316 0.0 0.0 0.00 0.00 0.00 37 1015.2
20260507011121 13 283 1.6 1.6 0.00 0.00 0.00 34 1015.2
20260507010621 14 0 1.6 1.6 0.00 0.00 0.00 30 1015.2
20260507005120 15 338 1.6 1.6 0.00 0.00 0.00 29 1015.2
20260507004121 15 315 1.6 1.6 0.00 0.00 0.00 27 1015.2
20260507003621 15 298 1.6 1.6 0.00 0.00 0.00 29 1015.2
20260507002621 15 290 1.6 1.6 0.00 0.00 0.00 28 1015.2
20260507002120 15 290 1.6 1.6 0.00 0.00 0.00 28 1015.2
20260507001120 15 10 1.6 1.6 0.00 0.00 0.00 28 1015.2
20260507000621 15 312 1.6 1.6 0.00 0.00 0.00 29 1015.6
20260506235620 15 282 3.2 3.2 0.00 0.00 0.00 28 1015.6
20260506234620 15 14 3.2 3.2 0.00 0.00 0.00 30 1015.6
20260506234120 15 19 3.2 3.2 0.00 0.00 0.00 29 1015.9
20260506233121 15 303 3.2 3.2 0.00 0.00 0.00 29 1015.9
20260506232620 16 306 3.2 3.2 0.00 0.00 0.00 28 1015.9
20260506232121 16 18 3.2 3.2 0.00 0.00 0.00 29 1015.9
20260506231121 15 354 3.2 3.2 0.00 0.00 0.00 30 1015.9
20260506230124 15 10 3.2 3.2 0.00 0.00 0.00 30 1015.9
20260506225621 15 324 3.2 3.2 0.00 0.00 0.00 30 1015.9
20260506225121 15 20 3.2 3.2 0.00 0.00 0.00 30 1015.9
20260506224621 15 23 3.2 3.2 0.00 0.00 0.00 29 1015.9
20260506224120 15 5 3.2 3.2 0.00 0.00 0.00 30 1015.9
20260506223121 15 348 4.8 4.8 0.00 0.00 0.00 30 1016.3
20260506222621 15 328 4.8 4.8 0.00 0.00 0.00 29 1016.3
20260506222121 16 330 4.8 4.8 0.00 0.00 0.00 30 1016.3
20260506221620 16 358 3.2 3.2 0.00 0.00 0.00 29 1016.3
20260506220621 15 347 4.8 4.8 0.00 0.00 0.00 29 1016.3
20260506215621 15 358 4.8 4.8 0.00 0.00 0.00 30 1016.3
20260506215121 15 15 4.8 4.8 0.00 0.00 0.00 29 1016.3
20260506214121 15 6 4.8 4.8 0.00 0.00 0.00 30 1016.6
20260506213121 15 317 4.8 4.8 0.00 0.00 0.00 31 1016.6
20260506212621 15 11 4.8 4.8 0.00 0.00 0.00 31 1016.6
20260506211620 15 316 4.8 4.8 0.00 0.00 0.00 32 1016.6
20260506211120 15 349 4.8 4.8 0.00 0.00 0.00 30 1016.9
20260506210120 15 299 4.8 4.8 0.00 0.00 0.00 31 1016.9
20260506204621 15 337 4.8 4.8 0.00 0.00 0.00 31 1017.3
20260506204121 15 325 4.8 4.8 0.00 0.00 0.00 30 1017.3
20260506203121 15 291 4.8 4.8 0.00 0.00 0.00 31 1017.3
20260506202621 15 269 4.8 4.8 0.00 0.00 0.00 32 1017.3
20260506201121 14 9 3.2 3.2 0.00 0.00 0.00 35 1017.6
20260506200121 14 0 4.8 4.8 0.00 0.00 0.00 35 1017.6
20260506195620 14 38 4.8 4.8 0.00 0.00 0.00 33 1017.6
20260506194621 14 11 4.8 4.8 0.00 0.00 0.00 35 1017.6
20260506194121 15 285 4.8 4.8 0.00 0.00 0.00 33 1017.6
20260506193120 14 16 4.8 4.8 0.00 0.00 0.00 32 1017.6
20260506192620 14 274 4.8 4.8 0.00 0.00 0.00 35 1017.9
20260506191621 14 335 4.8 4.8 0.00 0.00 0.00 34 1017.6
20260506190621 14 343 4.8 4.8 0.00 0.00 0.00 34 1017.9
20260506190121 14 359 4.8 4.8 0.00 0.00 0.00 34 1017.9
20260506185621 13 349 4.8 4.8 0.00 0.00 0.00 35 1017.9
20260506184621 13 9 3.2 3.2 0.00 0.00 0.00 37 1017.9
20260506183621 14 326 3.2 3.2 0.00 0.00 0.00 35 1018.3
20260506183121 13 359 3.2 3.2 0.00 0.00 0.00 35 1018.3
20260506182621 13 20 3.2 3.2 0.00 0.00 0.00 36 1018.3
20260506181621 13 352 3.2 3.2 0.00 0.00 0.00 35 1018.3
20260506181120 13 1 4.8 4.8 0.00 0.00 0.00 39 1018.3
20260506180121 13 32 3.2 3.2 0.00 0.00 0.00 36 1018.6
20260506175620 12 42 3.2 3.2 0.00 0.00 0.00 39 1018.6
20260506174621 12 349 3.2 3.2 0.00 0.00 0.00 39 1018.6
20260506174121 12 262 4.8 4.8 0.00 0.00 0.00 38 1018.6
20260506173121 12 32 4.8 4.8 0.00 0.00 0.00 39 1019.0
20260506172621 12 4 4.8 4.8 0.00 0.00 0.00 38 1019.0
20260506172120 12 303 4.8 4.8 0.00 0.00 0.00 38 1019.0
20260506171121 11 29 4.8 4.8 0.00 0.00 0.00 39 1019.0
20260506170121 11 282 4.8 4.8 0.00 0.00 0.00 38 1019.3
20260506165121 11 358 3.2 3.2 0.00 0.00 0.00 38 1019.3
20260506164121 11 29 3.2 3.2 0.00 0.00 0.00 40 1019.3
20260506162621 11 6 3.2 3.2 0.00 0.00 0.00 38 1019.3
20260506161621 11 25 3.2 3.2 0.00 0.00 0.00 40 1019.3
20260506161121 11 27 3.2 3.2 0.00 0.00 0.00 38 1019.0
20260506160121 11 18 3.2 3.2 0.00 0.00 0.00 40 1019.3
20260506155121 11 338 3.2 3.2 0.00 0.00 0.00 41 1019.0
20260506154121 11 27 3.2 3.2 0.00 0.00 0.00 42 1019.0
20260506153621 11 22 3.2 3.2 0.00 0.00 0.00 43 1019.0
20260506151621 11 353 3.2 3.2 0.00 0.00 0.00 42 1019.0
20260506151121 10 340 3.2 3.2 0.00 0.00 0.00 43 1019.0
20260506150621 10 320 1.6 1.6 0.00 0.00 0.00 42 1019.0
20260506144621 11 12 1.6 1.6 0.00 0.00 0.00 42 1019.0
20260506144121 10 359 1.6 1.6 0.00 0.00 0.00 43 1019.3
20260506143121 10 26 1.6 1.6 0.00 0.00 0.00 45 1019.0
20260506142120 10 26 1.6 1.6 0.00 0.00 0.00 44 1019.0
20260506141121 10 29 1.6 1.6 0.00 0.00 0.00 46 1019.0
20260506140120 10 3 1.6 1.6 0.00 0.00 0.00 48 1019.0
20260506135121 10 348 1.6 1.6 0.00 0.00 0.00 47 1019.0
20260506134621 10 351 1.6 1.6 0.00 0.00 0.00 48 1019.0
20260506133621 9 24 1.6 1.6 0.00 0.00 0.00 48 1019.0
20260506133121 9 359 1.6 1.6 0.00 0.00 0.00 50 1018.6
20260506132121 8 13 1.6 1.6 0.00 0.00 0.00 51 1018.6
20260506130621 7 356 1.6 1.6 0.00 0.00 0.00 54 1018.3
20260506130121 7 2 1.6 1.6 0.00 0.00 0.00 54 1018.3
20260506125121 6 33 1.6 1.6 0.00 0.00 0.00 55 1018.3
20260506124621 6 8 1.6 1.6 0.00 0.00 0.00 55 1018.3
20260506124121 6 35 1.6 1.6 0.00 0.00 0.00 57 1017.9
20260506123121 5 42 0.0 0.0 0.00 0.00 0.00 60 1017.9
20260506122621 4 296 0.0 0.0 0.00 0.00 0.00 66 1017.9
20260506121621 3 300 0.0 0.0 0.00 0.00 0.00 67 1017.6
20260506121121 3 339 0.0 0.0 0.00 0.00 0.00 67 1017.6
20260506115621 2 287 0.0 0.0 0.00 0.00 0.00 67 1017.6
20260506115121 3 243 0.0 0.0 0.00 0.00 0.00 67 1017.3
20260506114121 3 207 1.6 1.6 0.00 0.00 0.00 65 1017.3
20260506113121 3 205 0.0 0.0 0.00 0.00 0.00 65 1017.3
20260506112621 3 224 0.0 0.0 0.00 0.00 0.00 64 1017.3
20260506111621 3 293 0.0 0.0 0.00 0.00 0.00 62 1017.3
20260506110621 4 260 0.0 0.0 0.00 0.00 0.00 61 1017.3
20260506110121 4 271 0.0 0.0 0.00 0.00 0.00 60 1017.3
20260506105121 5 212 0.0 0.0 0.00 0.00 0.00 59 1017.3
20260506102621 5 222 0.0 0.0 0.00 0.00 0.00 58 1016.9
20260506102121 5 0 0.0 0.0 0.00 0.00 0.00 58 1016.9
20260506101121 5 324 0.0 0.0 0.00 0.00 0.00 57 1016.9
20260506100621 5 271 0.0 0.0 0.00 0.00 0.00 56 1016.9
20260506095621 5 0 0.0 0.0 0.00 0.00 0.00 56 1016.6
20260506094621 5 285 0.0 0.0 0.00 0.00 0.00 54 1016.6
20260506094121 5 196 0.0 0.0 0.00 0.00 0.00 54 1016.6